G4YTK Weather Reports


time (UTC)temp
C
wind
direction
speed
KPH
gust
KPH
rain 1hr
cm
rain 24hr
cm
rain mn
cm
humidity
%
barometer
mb
20260506011505 6 360 11.3 24.1 0.00 0.03 0.00 100 1015.5
20260506010009 7 360 11.3 20.9 0.00 0.03 0.00 100 1015.5
20260506004505 7 360 11.3 22.5 0.00 0.03 0.00 100 1015.7
20260506003005 7 360 11.3 24.1 0.00 0.03 0.00 100 1015.8
20260505234509 7 360 11.3 22.5 0.00 0.03 0.00 100 1015.8
20260505233008 7 360 11.3 22.5 0.00 0.03 0.00 100 1015.7
20260505231507 7 360 11.3 19.3 0.00 0.03 0.00 100 1015.6
20260505230024 8 360 11.3 20.9 0.00 0.03 0.00 100 1015.7
20260505224508 8 360 8.0 17.7 0.00 0.03 0.03 100 1015.7
20260505223008 8 360 9.7 24.1 0.00 0.03 0.03 100 1015.7
20260505221508 8 360 12.9 24.1 0.00 0.03 0.03 100 1015.6
20260505220010 8 360 16.1 35.4 0.00 0.03 0.03 100 1015.4
20260505214507 8 360 17.7 30.6 0.00 0.03 0.03 100 1015.6
20260505213008 9 360 12.9 24.1 0.00 0.03 0.03 100 1015.5
20260505211508 10 360 11.3 20.9 0.00 0.03 0.03 100 1015.5
20260505204506 10 360 9.7 22.5 0.00 0.03 0.03 100 1015.4
20260505203007 10 360 11.3 20.9 0.00 0.03 0.03 100 1015.3
20260505201506 10 360 9.7 19.3 0.00 0.03 0.03 100 1015.3
20260505200012 10 360 9.7 17.7 0.00 0.03 0.03 100 1015.1
20260505194506 10 360 6.4 17.7 0.00 0.05 0.03 100 1015.1
20260505193007 10 10 4.8 8.0 0.00 0.05 0.03 100 1014.8
20260505191507 11 339 6.4 14.5 0.00 0.05 0.03 100 1014.8
20260505190009 11 350 6.4 16.1 0.00 0.05 0.03 100 1014.7
20260505184506 11 328 6.4 12.9 0.00 0.05 0.03 100 1014.6
20260505183007 11 331 6.4 12.9 0.00 0.05 0.03 100 1014.6
20260505181506 11 336 8.0 16.1 0.00 0.05 0.03 100 1014.5
20260505180015 11 9 9.7 19.3 0.00 0.05 0.03 100 1014.5
20260505174506 12 319 8.0 16.1 0.00 0.05 0.03 100 1014.5
20260505173007 12 340 8.0 20.9 0.00 0.05 0.03 100 1014.5
20260505171507 12 315 11.3 22.5 0.00 0.05 0.03 100 1014.6
20260505170012 12 321 9.7 22.5 0.00 0.05 0.03 100 1014.5
20260505164506 12 14 9.7 19.3 0.00 0.05 0.03 100 1014.6
20260505163009 12 309 9.7 19.3 0.00 0.05 0.03 100 1014.5
20260505161506 12 346 12.9 20.9 0.00 0.05 0.03 100 1014.4
20260505153007 12 309 11.3 19.3 0.00 0.05 0.03 100 1014.6
20260505151504 12 305 11.3 24.1 0.00 0.05 0.03 100 1014.6
20260505123007 13 350 6.4 14.5 0.00 0.05 0.03 100 1014.7
20260505121506 12 323 8.0 20.9 0.00 0.05 0.03 100 1014.8
20260505120010 12 319 11.3 19.3 0.00 0.05 0.03 100 1014.8
20260505114506 13 336 8.0 22.5 0.00 0.05 0.03 100 1014.8
20260505113007 12 28 12.9 20.9 0.00 0.05 0.03 100 1014.9
20260505111506 12 350 12.9 24.1 0.00 0.05 0.03 100 1015.0
20260505094506 11 331 11.3 25.7 0.00 0.08 0.03 100 1015.3
20260505093006 10 348 11.3 17.7 0.00 0.08 0.03 100 1015.4
20260505091507 11 290 11.3 25.7 0.00 0.08 0.03 100 1015.3
20260505090010 11 81 6.4 16.1 0.00 0.08 0.03 100 1015.3
20260505084506 10 319 11.3 24.1 0.00 0.08 0.03 100 1015.3
20260505083007 10 360 11.3 20.9 0.00 0.08 0.03 100 1015.4
20260505081507 10 25 9.7 22.5 0.00 0.08 0.03 100 1015.5
20260505080017 10 335 11.3 24.1 0.00 0.08 0.03 100 1015.5
20260505074505 8 326 9.7 19.3 0.00 0.08 0.03 100 1015.5
20260505073006 8 304 9.7 19.3 0.00 0.08 0.03 100 1015.6
20260505071505 8 321 9.7 17.7 0.00 0.08 0.03 100 1015.5
20260505064505 7 360 6.4 9.7 0.00 0.08 0.03 100 1015.7
20260505063006 7 277 4.8 9.7 0.00 0.08 0.03 100 1015.7
20260505061505 6 313 4.8 12.9 0.00 0.08 0.03 100 1015.5
20260505060010 6 327 6.4 14.5 0.00 0.08 0.03 100 1015.5
20260505054505 6 306 3.2 6.4 0.00 0.10 0.03 100 1015.4
20260505051505 5 303 4.8 6.4 0.00 0.10 0.03 100 1015.4
20260505041505 4 311 1.6 4.8 0.03 0.10 0.03 100 1015.3
20260505040008 5 337 0.0 0.0 0.00 0.08 0.00 100 1015.3
20260505034508 5 337 0.0 0.0 0.00 0.08 0.00 100 1015.4
20260505033006 5 337 0.0 0.0 0.00 0.08 0.00 100 1015.4
20260505031503 5 337 0.0 0.0 0.00 0.08 0.00 100 1015.5
20260505030008 5 337 0.0 0.0 0.00 0.08 0.00 100 1015.6
20260505024505 5 337 0.0 0.0 0.00 0.08 0.00 100 1015.5
20260505023005 5 337 1.6 3.2 0.00 0.08 0.00 100 1015.6
20260505021506 6 360 3.2 6.4 0.00 0.08 0.00 100 1015.7
20260505020018 6 360 3.2 6.4 0.00 0.08 0.00 100 1015.9
20260505014505 6 360 4.8 6.4 0.00 0.10 0.00 100 1015.9
20260505013011 6 360 4.8 8.0 0.00 0.10 0.00 100 1016.0